Williston, ND

9:02 AM CDT on July 25, 2017 (GMT -0500)
Sloulin International

Weather History for KISN - July, 2013

Change the Weather History Date:

Thursday, July 25, 2013

  Actual Average Record
Temperature  
Mean Temperature 61 °F 71 °F  
Max Temperature 69 °F 86 °F 105 °F (1931)
Min Temperature 52 °F 57 °F 44 °F (1911)
Degree Days  
Heating Degree Days 4 0  
Month to date heating degree days 9 21  
Since 1 June heating degree days 137 141  
Since 1 July heating degree days 9 21  
Cooling Degree Days 0 7  
Month to date cooling degree days 124 140  
Year to date cooling degree days 159 221  
Since 1 June cooling degree days 151 208  
Growing Degree Days 12 (Base 50)    
Moisture  
Dew Point 51 °F    
Average Humidity 67    
Maximum Humidity 93    
Minimum Humidity 40    
Precipitation  
Precipitation 0.00 in 0.06 in 0.57 in (1918)
Month to date precipitation 1.75 2.17  
Year to date precipitation 13.72 9.30  
Snow  
Snow 0.00 in - - ()
Month to date snowfall 0.0  
Since 1 June snowfall 0.0  
Snow Depth 0.00 in    
Sea Level Pressure  
Sea Level Pressure 30.13 in    
Wind  
Wind Speed 11 mph (North)    
Max Wind Speed 23 mph    
Max Gust Speed 29 mph    
Visibility 10 miles    
Events      
T = Trace of Precipitation, MM = Missing Value Source: NWS Daily Summary

Daily Weather History Graph

Daily Weather History Graph

Search for Another Location

Airport or City:

Trip Planner

Search our weather history database for the weather conditions in past years. The results will help you decide how hot, cold, wet, or windy it might be!

Date:

Astronomy

Jul. 25, 2013 Rise Set
Actual Time 6:21 AM CDT 9:39 PM CDT
Civil Twilight 5:43 AM CDT 10:17 PM CDT
Nautical Twilight 4:54 AM CDT 11:06 PM CDT
Astronomical Twilight 3:49 AM CDT 12:09 AM CDT
Moon 10:57 PM CDT 10:15 AM CDT
Length of Visible Light 16h 33m
Length of Day
15h 17m
Waning Gibbous, 88% of the Moon is Illuminated
Jul 25
Waning Gibbous
Jul 29
Last Quarter
Aug 6
New
Aug 14
First Quarter
Aug 20
Full

Hourly Weather History & Observations

Time (CDT) Temp. Dew Point Humidity Pressure Visibility Wind Dir Wind Speed Gust Speed Precip Events Conditions
12:52 AM 64.0 °F 60.1 °F 87% 30.01 in 10.0 mi SSE 4.6 mph - 0.00 in   Scattered Clouds
1:52 AM 62.1 °F 59.0 °F 90% 30.01 in 10.0 mi North 4.6 mph - N/A   Partly Cloudy
2:52 AM 60.1 °F 55.9 °F 86% 30.01 in 10.0 mi North 3.5 mph - N/A   Clear
3:52 AM 55.9 °F 54.0 °F 93% 30.02 in 10.0 mi Calm Calm - N/A   Clear
4:52 AM 57.0 °F 53.1 °F 87% 30.04 in 10.0 mi Calm Calm - N/A   Clear
5:52 AM 57.0 °F 53.1 °F 87% 30.06 in 10.0 mi NNW 4.6 mph - N/A   Clear
6:52 AM 57.0 °F 53.1 °F 87% 30.08 in 10.0 mi NNW 4.6 mph - N/A   Clear
7:50 AM 57.2 °F 55.4 °F 94% 30.11 in 10.0 mi North 6.9 mph - N/A   Mostly Cloudy
7:52 AM 57.9 °F 55.0 °F 90% 30.10 in 10.0 mi North 8.1 mph - N/A   Mostly Cloudy
8:24 AM 59.0 °F 55.4 °F 88% 30.12 in 10.0 mi North 11.5 mph - N/A   Scattered Clouds
8:52 AM 61.0 °F 54.0 °F 78% 30.12 in 10.0 mi North 18.4 mph - N/A   Scattered Clouds
9:13 AM 60.8 °F 53.6 °F 77% 30.14 in 10.0 mi North 18.4 mph - N/A   Mostly Cloudy
9:52 AM 60.1 °F 52.0 °F 75% 30.15 in 10.0 mi North 15.0 mph - N/A   Overcast
10:52 AM 63.0 °F 50.0 °F 63% 30.14 in 10.0 mi North 18.4 mph 25.3 mph N/A   Mostly Cloudy
11:36 AM 64.4 °F 50.0 °F 59% 30.16 in 10.0 mi North 16.1 mph - N/A   Mostly Cloudy
11:52 AM 63.0 °F 48.9 °F 60% 30.16 in 10.0 mi North 17.3 mph 23.0 mph N/A   Mostly Cloudy
12:52 PM 64.9 °F 48.9 °F 56% 30.16 in 10.0 mi NW 15.0 mph - N/A   Mostly Cloudy
1:52 PM 66.0 °F 48.0 °F 52% 30.17 in 10.0 mi North 15.0 mph 25.3 mph N/A   Scattered Clouds
2:52 PM 66.0 °F 46.9 °F 50% 30.18 in 10.0 mi North 12.7 mph - N/A   Mostly Cloudy
3:52 PM 68.0 °F 46.0 °F 45% 30.18 in 10.0 mi NNW 17.3 mph - N/A   Mostly Cloudy
4:52 PM 68.0 °F 46.0 °F 45% 30.18 in 10.0 mi North 18.4 mph 25.3 mph N/A   Partly Cloudy
5:52 PM 66.9 °F 45.0 °F 45% 30.18 in 10.0 mi North 16.1 mph 26.5 mph N/A   Scattered Clouds
6:52 PM 69.1 °F 45.0 °F 42% 30.17 in 10.0 mi North 15.0 mph - N/A   Scattered Clouds
7:52 PM 66.9 °F 46.0 °F 47% 30.18 in 10.0 mi North 13.8 mph 21.9 mph N/A   Mostly Cloudy
8:52 PM 64.0 °F 46.0 °F 52% 30.19 in 10.0 mi North 12.7 mph - N/A   Clear
9:52 PM 59.0 °F 48.9 °F 69% 30.22 in 10.0 mi North 12.7 mph - N/A   Clear
10:52 PM 55.9 °F 48.9 °F 77% 30.24 in 10.0 mi North 6.9 mph - N/A   Clear
11:52 PM 54.0 °F 48.9 °F 83% 30.26 in 10.0 mi North 9.2 mph - N/A   Clear